FW2709 Weather Reports


Display with metric or nautical units.
time (UTC)temp
F
wind
direction
speed
MPH
gust
MPH
rain 1hr
in
rain 24hr
in
rain mn
in
humidity
%
barometer
mb
20260505010017 39 126 0.0 0.0 0.00 0.00 0.08 87 1003.3
20260505004524 39 126 0.0 0.0 0.00 0.00 0.07 85 1003.4
20260505003046 39 126 0.0 0.0 0.00 0.00 0.06 82 1003.6
20260505001558 40 127 1.0 0.0 0.00 0.00 0.06 81 1003.0
20260505000003 43 215 3.0 0.0 0.00 0.00 0.04 74 1002.4
20260504234606 46 359 1.0 0.0 0.00 0.00 0.03 66 1002.4
20260504233025 47 356 7.0 0.0 0.00 0.00 0.03 62 1001.6
20260504231606 47 354 8.0 0.0 0.00 0.00 0.03 64 1001.4
20260504230014 46 354 5.0 0.0 0.00 0.00 0.03 68 1001.8
20260504224608 46 354 4.0 0.0 0.00 0.00 0.03 71 1001.5
20260504223031 47 340 5.0 0.0 0.00 0.00 0.03 73 1001.5
20260504221504 48 357 2.0 0.0 0.00 0.00 0.01 53 1001.3
20260504220008 51 359 4.0 0.0 0.00 0.00 0.00 45 1000.1
20260504214607 55 346 4.0 0.0 0.00 0.00 0.00 41 999.1
20260504213111 56 267 3.0 0.0 0.00 0.00 0.00 39 998.5
20260504211530 55 72 2.0 0.0 0.00 0.00 0.00 41 998.6
20260504210052 54 251 3.0 0.0 0.00 0.00 0.00 45 999.5
20260504204531 52 353 1.0 0.0 0.00 0.00 0.00 46 1000.6
20260504203003 52 343 1.0 0.0 0.00 0.00 0.00 44 1001.6
20260504201554 51 353 2.0 0.0 0.00 0.00 0.00 48 1001.6
20260504200003 51 350 1.0 0.0 0.00 0.00 0.00 46 1001.4
20260504194605 52 319 2.0 0.0 0.00 0.00 0.00 43 1001.7
20260504193035 53 339 2.0 0.0 0.00 0.00 0.00 41 1001.2
20260504191502 54 352 2.0 0.0 0.00 0.00 0.00 39 999.8
20260504190019 56 350 4.0 0.0 0.00 0.00 0.00 38 999.8
20260504184609 55 311 4.0 0.0 0.00 0.00 0.00 41 1000.0
20260504183042 56 254 3.0 0.0 0.00 0.00 0.00 37 1000.0
20260504181513 55 354 3.0 0.0 0.00 0.00 0.00 32 1000.6
20260504180038 55 353 2.0 0.0 0.00 0.00 0.00 32 1001.2
20260504174508 54 343 3.0 0.0 0.00 0.00 0.00 32 1001.3
20260504173114 54 336 5.0 0.0 0.00 0.00 0.00 34 1001.5
20260504171533 54 320 4.0 0.0 0.00 0.00 0.00 34 1001.5
20260504150108 50 354 3.0 0.0 0.00 0.00 0.00 34 1001.5
20260504110117 40 199 1.0 0.0 0.00 0.00 0.00 35 1000.9
20260504081519 42 285 1.0 0.0 0.00 0.00 0.00 30 1001.0
20260504050009 40 14 0.0 0.0 0.00 0.00 0.00 37 1003.6
20260504044603 40 14 0.0 0.0 0.00 0.00 0.00 40 1003.8
20260504043041 41 16 0.0 0.0 0.00 0.00 0.00 39 1003.4
20260504041509 42 16 0.0 0.0 0.00 0.00 0.00 38 1003.5
20260504040023 43 14 0.0 0.0 0.00 0.00 0.00 35 1002.9
20260504034503 43 16 0.0 0.0 0.00 0.00 0.00 37 1002.4
20260504033114 44 16 0.0 0.0 0.00 0.00 0.00 39 1002.3
20260504031526 45 16 0.0 0.0 0.00 0.00 0.00 38 1002.3
20260504030048 47 16 0.0 0.0 0.00 0.00 0.00 35 1002.0
20260504024534 48 315 0.0 0.0 0.00 0.00 0.00 33 1001.3
20260504023012 49 270 0.0 0.0 0.00 0.00 0.00 33 1001.1
20260504021602 50 325 0.0 0.0 0.00 0.00 0.00 31 1000.5
20260504020003 51 332 1.0 0.0 0.00 0.00 0.00 31 1000.4
20260504014554 52 353 0.0 0.0 0.00 0.00 0.00 30 1000.4
20260504013008 52 352 1.0 0.0 0.00 0.00 0.00 31 1000.5
20260504011558 53 357 1.0 0.0 0.00 0.00 0.00 31 1000.5